NY5V Weather Reports


time (UTC)temp
C
wind
direction
speed
KPH
gust
KPH
rain 1hr
cm
rain 24hr
cm
rain mn
cm
humidity
%
barometer
mb
20260502151652 18 55 0.0 1.6 0.00 0.00 0.00 72 1021.3
20260502150652 17 55 0.0 0.0 0.00 0.00 0.00 75 1021.4
20260502130642 11 60 0.0 0.0 0.00 0.00 0.00 99 1020.4
20260502123636 10 55 0.0 0.0 0.00 0.00 0.00 99 1020.0
20260502122635 10 53 0.0 0.0 0.00 0.00 0.00 99 1020.0
20260502121636 10 53 0.0 0.0 0.00 0.00 0.00 99 1020.0
20260502120635 10 53 0.0 0.0 0.00 0.00 0.00 99 1019.5
20260502115635 10 53 0.0 0.0 0.00 0.00 0.00 99 1019.5
20260502114633 10 53 0.0 0.0 0.00 0.00 0.00 99 1019.2
20260502113628 10 51 0.0 0.0 0.00 0.00 0.00 99 1019.2
20260502112624 10 53 0.0 0.0 0.00 0.00 0.00 99 1019.1
20260502111624 10 53 0.0 0.0 0.00 0.00 0.00 99 1018.7
20260502110619 10 53 0.0 0.0 0.00 0.00 0.00 99 1018.8
20260502105614 10 54 0.0 0.0 0.00 0.00 0.00 99 1018.7
20260502104614 10 55 0.0 0.0 0.00 0.00 0.00 99 1018.5
20260502103609 10 55 0.0 0.0 0.00 0.00 0.00 99 1018.5
20260502102609 10 55 0.0 0.0 0.00 0.00 0.00 98 1018.4
20260502101610 10 55 0.0 0.0 0.00 0.00 0.00 98 1018.5
20260502100606 10 55 0.0 0.0 0.00 0.00 0.00 98 1018.4
20260502090552 11 58 0.0 0.0 0.00 0.00 0.00 97 1017.9
20260502071533 12 58 0.0 0.0 0.00 0.00 0.00 94 1018.0
20260502070529 12 64 0.0 0.0 0.00 0.00 0.00 94 1018.4
20260502065525 12 64 0.0 0.0 0.00 0.00 0.00 94 1018.4
20260502064521 12 67 1.6 1.6 0.00 0.00 0.00 95 1018.2
20260502063521 12 63 0.0 0.0 0.00 0.00 0.00 95 1018.3
20260502062521 12 71 1.6 1.6 0.00 0.00 0.00 94 1018.2
20260502061517 12 66 0.0 1.6 0.00 0.00 0.00 94 1018.1
20260502060515 12 64 0.0 0.0 0.00 0.00 0.00 95 1018.0
20260502055516 12 63 0.0 0.0 0.00 0.00 0.00 95 1018.2
20260502054513 12 63 0.0 0.0 0.00 0.00 0.00 95 1018.1
20260502053512 12 67 0.0 0.0 0.00 0.00 0.00 95 1018.2
20260502052508 12 66 0.0 0.0 0.00 0.00 0.00 96 1018.1
20260502051504 12 61 0.0 0.0 0.00 0.00 0.00 95 1018.2
20260502050503 12 61 0.0 0.0 0.00 0.00 0.00 95 1017.9
20260502045503 12 65 0.0 0.0 0.00 0.46 0.46 95 1017.8
20260502044502 12 63 0.0 0.0 0.00 0.46 0.46 95 1017.9
20260502043456 12 64 0.0 0.0 0.00 0.46 0.46 95 1017.8
20260502042453 12 57 0.0 0.0 0.00 0.46 0.46 97 1017.9
20260502041448 12 53 0.0 0.0 0.00 0.46 0.46 97 1017.7
20260502040447 12 53 0.0 0.0 0.00 0.46 0.46 97 1017.8
20260502035445 12 53 0.0 0.0 0.00 0.46 0.46 96 1017.8
20260502034442 12 53 0.0 0.0 0.00 0.46 0.46 96 1017.6
20260502033443 12 53 0.0 0.0 0.00 0.46 0.46 96 1017.7
20260502032442 12 61 0.0 0.0 0.00 0.46 0.46 95 1017.7
20260502031437 13 64 0.0 0.0 0.00 0.46 0.46 95 1017.8
20260502030433 12 67 0.0 0.0 0.00 0.46 0.46 94 1017.8
20260502025433 12 58 0.0 0.0 0.00 0.46 0.46 94 1017.1
20260502024429 12 58 0.0 0.0 0.00 0.46 0.46 94 1016.8
20260502023424 12 58 0.0 0.0 0.00 0.46 0.46 93 1017.2
20260502022424 13 61 0.0 0.0 0.00 0.46 0.46 93 1016.9
20260502021418 13 64 0.0 0.0 0.00 0.46 0.46 93 1016.8
20260502020413 12 75 0.0 0.0 0.00 0.46 0.46 94 1016.9
20260502015413 12 66 0.0 0.0 0.00 0.46 0.46 96 1016.7
20260502014412 12 50 0.0 0.0 0.00 0.46 0.46 96 1017.2
20260502013409 13 41 0.0 0.0 0.00 0.46 0.46 96 1017.1
20260502012405 13 56 0.0 0.0 0.00 0.46 0.46 95 1016.9
20260502011403 13 59 0.0 0.0 0.00 0.46 0.46 94 1016.3
20260502010403 13 57 0.0 0.0 0.00 0.46 0.46 94 1016.8
20260502005404 13 56 0.0 0.0 0.00 0.46 0.46 93 1016.1
20260502004403 13 67 0.0 0.0 0.00 0.46 0.46 93 1015.6
20260502003357 13 57 0.0 0.0 0.00 0.46 0.46 91 1015.8
20260502002357 13 64 0.0 0.0 0.00 0.46 0.46 91 1015.8
20260502001358 13 64 0.0 0.0 0.00 0.46 0.46 90 1016.0
20260502000354 13 63 0.0 0.0 0.00 0.46 0.46 90 1015.6
20260501235351 13 60 0.0 0.0 0.00 0.46 0.46 89 1015.7
20260501234349 13 64 0.0 0.0 0.00 0.46 0.46 88 1015.7
20260501233344 13 62 0.0 0.0 0.00 0.46 0.46 86 1015.5
20260501232343 13 70 1.6 1.6 0.00 0.46 0.46 86 1015.4
20260501231338 13 62 0.0 0.0 0.00 0.46 0.46 84 1015.8
20260501230336 13 81 1.6 1.6 0.00 0.46 0.46 83 1014.8
20260501225336 14 73 1.6 1.6 0.00 0.46 0.46 84 1015.0
20260501224334 14 69 0.0 1.6 0.00 0.46 0.46 83 1015.3
20260501223332 14 67 0.0 1.6 0.00 0.46 0.46 81 1015.0
20260501222332 14 63 1.6 1.6 0.00 0.46 0.46 82 1014.8
20260501221331 14 89 1.6 3.2 0.00 0.46 0.46 81 1015.0
20260501220327 15 128 1.6 3.2 0.00 0.46 0.46 82 1014.6
20260501215325 14 93 1.6 3.2 0.00 0.46 0.46 84 1014.2
20260501214322 14 92 3.2 4.8 0.00 0.46 0.46 82 1013.7
20260501213321 14 155 6.4 6.4 0.00 0.46 0.46 81 1013.5
20260501212319 14 86 4.8 4.8 0.00 0.46 0.46 82 1013.8
20260501211319 14 109 3.2 4.8 0.00 0.46 0.46 83 1013.8
20260501210319 14 100 4.8 4.8 0.00 0.46 0.46 84 1014.0
20260501205319 14 78 1.6 1.6 0.00 0.46 0.46 84 1014.8
20260501204318 14 70 1.6 1.6 0.00 0.46 0.46 83 1015.0
20260501203317 14 73 1.6 1.6 0.00 0.46 0.46 83 1015.4
20260501202317 14 76 0.0 1.6 0.00 0.46 0.46 82 1016.0
20260501201316 14 120 3.2 4.8 0.00 0.46 0.46 84 1015.4
20260501200316 14 106 8.0 9.7 0.00 0.46 0.46 82 1014.6
20260501195315 15 123 4.8 4.8 0.00 0.46 0.46 83 1013.7
20260501194313 15 56 1.6 3.2 0.00 0.46 0.46 85 1013.5
20260501193308 14 110 3.2 4.8 0.00 0.46 0.46 86 1013.5
20260501192308 14 141 3.2 6.4 0.00 0.46 0.46 87 1013.3
20260501191302 13 191 3.2 4.8 0.00 0.46 0.46 90 1013.4
20260501190300 12 112 4.8 6.4 0.00 0.46 0.46 92 1014.1
20260501185258 12 75 1.6 1.6 0.00 0.46 0.46 96 1014.0
20260501184255 12 26 3.2 3.2 0.00 0.46 0.46 98 1014.3
20260501183255 12 111 3.2 4.8 0.00 0.46 0.46 99 1014.7
20260501182254 12 106 3.2 4.8 0.00 0.46 0.46 99 1015.1
20260501181253 12 76 3.2 3.2 0.00 0.46 0.46 99 1015.5
20260501180252 11 87 1.6 1.6 0.18 0.46 0.46 99 1015.8
20260501175247 11 64 0.0 1.6 0.00 0.43 0.43 99 1016.0
20260501174246 11 69 1.6 1.6 0.00 0.43 0.43 99 1016.1
20260501173247 11 72 1.6 1.6 0.00 0.43 0.43 99 1016.1
20260501172244 11 112 1.6 3.2 0.00 0.43 0.43 99 1016.1
20260501171243 11 64 0.0 1.6 0.00 0.43 0.43 99 1016.5
20260501170242 11 36 1.6 1.6 0.00 0.43 0.43 99 1017.0
20260501165237 11 63 0.0 1.6 0.00 0.43 0.43 99 1016.8
20260501164238 12 71 0.0 1.6 0.00 0.43 0.43 99 1016.7
20260501163236 11 47 1.6 1.6 0.00 0.43 0.43 99 1017.0
20260501162235 11 63 1.6 1.6 0.18 0.43 0.43 99 1016.7
20260501161235 11 62 0.0 1.6 0.00 0.41 0.41 99 1017.0
20260501160234 11 88 3.2 3.2 0.13 0.41 0.41 99 1017.0
20260501155234 11 66 1.6 1.6 0.18 0.38 0.38 99 1017.3
20260501154234 11 85 1.6 3.2 0.00 0.36 0.36 99 1017.5